GLOBALSTAR M083

Last updated on Mon Sep 21 2026 00:03:12 GMT+0000 (Coordinated Universal Time)

1 37739U 11033A 26262.94248463 -.00000080 00000+0 13522-3 0 9999 2 37739 51.9843 83.9564 0000554 108.7848 54.9279 12.62269052704918
UTC large
Height (km)
Speed (km/s)
/
Latitude / Longitude
Inclination (degrees)
Orbital Period (minutes)
Azimuth
Elevation
Range (km)
Doppler Factor

Next 0 passes for location: London (51.5072 / 0.1276)

No passes found over London.
GLOBALSTAR M083